Location: Bittkow
(50.3000°N, 19.0000°E)
Time: 22:33:50
(UTC+00:00)

Cosmos 2297 Rocket - Pass Details

Date: 19 September 2020
Orbit: 838 x 845 km, 71.0° (Epoch: 20 October)

Event Time Altitude Azimuth Distance (km) Brightness Sun altitude
Rises 00:23:07 0° 331° (NNW) 3,415 5.7 -33.6°
Reaches altitude 10° 00:25:35 10° 333° (NNW) 2,477 4.9 -33.4°
Enters shadow 00:29:03 38° 344° (NNW) 1,275 3.3 -33.1°
